Top countries

USA - 10698
Canada - 1960
United Kingdom - 1875
Australia - 1194
Poland - 1085
Germany - 1069
Brazil - 1065
Iran - 1021
Russia - 966
Greece - 901
France - 900
Mexico - 900
Some observations

Total members: 51448
Guys: 42530
Girls: 8877

Positions

Admin
Staff
Moderator
Elite
Contributor
Search







Pages: 1 ... 744 745 746 [747] 748 749 750 ... 1029
Username Sex Age Location Registered Last seen online Posts Points
37301 Nocturne Iran 08.06.2013 never 0 0
37302 Nocturne-km Iran 08.06.2013 13d ago 0 0
37303 DemmelitionMan 08.06.2013 272d ago 0 0
37304 Rosalind Kiribati 09.06.2013 never 0 0
37305 bagby Latvia 09.06.2013 47d ago 0 0
37306 AliMohammed 09.06.2013 79d ago 0 0
37307 bigdr82 Australia 08.06.2013 never 0 0
37308 Pavel Czech Republic 08.06.2013 309d ago 0 0
37309 romeosingal USA 08.06.2013 316d ago 0 0
37310 Maybell Oman 08.06.2013 never 0 0
37311 LordInfinity Argentina 08.06.2013 never 0 0
37312 tempoklad United Kingdom 08.06.2013 249d ago 0 0
37313 siki Serbia 09.06.2013 302d ago 0 0
37314 quill5soccer Indonesia 08.06.2013 never 0 0
37315 Leigh Latvia 09.06.2013 never 0 0
37316 hieidemon Argentina 08.06.2013 199d ago 0 0
37317 Kenton Brunei 08.06.2013 never 0 0
37318 DavideIsola 09.06.2013 316d ago 0 0
37319 kyyvits Estonia 09.06.2013 315d ago 0 0
37320 engenas Lithuania 09.06.2013 10d ago 0 0
37321 Janrey United Kingdom 09.06.2013 315d ago 0 0
37322 RikardIncarnit Sweden 09.06.2013 315d ago 0 0
37323 ego Italy 09.06.2013 never 0 0
37324 Gchirino Venezuela 10.06.2013 never 0 0
37325 Jenna Korea, South 10.06.2013 never 0 0
37326 Emba Sweden 09.06.2013 never 0 0
37327 grooweN Sweden 09.06.2013 314d ago 0 0
37328 TiiaLutsoja 09.06.2013 138d ago 0 0
37329 QueenMiSeRy Italy 09.06.2013 269d ago 0 0
37330 onslaught United Kingdom 10.06.2013 306d ago 0 8
37331 Uta Greece 09.06.2013 never 0 0
37332 Mkuusi Finland 09.06.2013 315d ago 0 0
37333 carlos sebastian Puerto Rico 09.06.2013 never 0 0
37334 JamieLaverickPoetry   09.06.2013 315d ago 0 0
37335 max101 Ireland 09.06.2013 309d ago 0 0
37336 juri1012 Germany 09.06.2013 297d ago 0 0
37337 Shanna Somalia 09.06.2013 never 0 0
37338 Dafa01 Sweden 09.06.2013 49d ago 0 0
37339 RakunG Poland 09.06.2013 22d ago 0 0
37340 mordorobin Belgium 09.06.2013 314d ago 0 0
37341 Micah Poland 09.06.2013 never 0 0
37342 Lenora Antigua and Barbuda 10.06.2013 never 0 0
37343 Alberta Guinea-Bissau 10.06.2013 never 0 0
37344 blassan Sweden 10.06.2013 315d ago 0 0
37345 Rubye Reunion 10.06.2013 never 0 0
37346 BrayanMuoz 10.06.2013 314d ago 0 0
37347 Lan Swaziland 10.06.2013 never 0 0
37348 Horace Poland 10.06.2013 never 0 0
37349 freddie77 Sweden 10.06.2013 314d ago 0 0
37350 saboter Greece 10.06.2013 29d ago 0 0
Pages: 1 ... 744 745 746 [747] 748 749 750 ... 1029